GFSSGP_925_spd_159.txt.gz
Wind_Speed
10 8 5 2 2 4 3 7 3 2 3 3 2 3 3 2 7 4 1 16 30 34 31 30 29 28 26 24 24 25 26 27 27 26 25 23 21 20 19 18 18 17 16 16 16 15 14 12 12
6 2 2 2 4 3 5 5 6 4 2 4 3 2 2 2 3 10 13 18 33 35 33 32 30 28 27 25 24 25 25 26 25 24 23 22 20 19 18 18 18 18 16 14 13 12 12 11 10
5 1 4 4 4 8 5 6 9 2 4 2 3 1 4 8 6 2 10 29 36 34 35 34 31 29 27 26 25 25 25 24 24 23 23 21 19 18 17 17 17 16 15 13 11 10 9 8 7
1 4 4 4 10 7 8 7 7 4 1 3 1 5 7 7 4 10 26 35 38 31 35 35 33 30 28 27 25 25 25 24 23 22 20 19 18 17 16 15 15 14 13 11 9 7 7 6 4
2 3 2 4 10 5 5 6 2 3 2 3 4 3 6 4 10 25 34 38 37 28 34 35 33 32 29 27 25 24 24 23 22 21 19 17 16 15 14 14 13 12 11 9 7 6 5 4 3
2 3 2 10 8 8 6 7 3 3 5 6 4 5 5 6 15 27 28 34 30 33 29 35 32 30 29 27 24 23 23 23 22 20 18 17 15 13 13 12 11 10 9 7 6 5 5 5 6
5 4 5 4 13 13 2 9 8 6 6 7 8 4 4 7 14 23 27 28 25 26 29 35 33 30 28 27 25 22 22 22 21 19 17 15 14 12 10 9 8 7 7 6 6 6 7 7 8
5 4 4 7 8 6 5 4 4 6 10 7 14 8 6 9 19 24 29 27 20 19 29 34 33 31 29 27 24 22 21 20 20 18 16 14 12 10 9 8 7 6 6 6 6 7 8 10 11
4 2 6 6 7 3 4 4 2 6 5 3 11 5 12 31 25 26 26 21 20 19 21 31 33 30 29 27 25 21 19 18 18 17 15 13 12 10 8 6 5 5 5 6 7 7 9 10 12
4 4 7 6 5 2 4 3 5 5 1 1 2 5 28 36 30 25 25 23 23 23 23 24 30 29 30 28 26 22 19 17 16 16 15 14 11 9 6 5 5 5 5 6 8 9 11 12 14
4 5 8 5 3 4 5 3 4 4 5 6 13 19 21 21 24 23 23 26 24 22 22 21 22 23 29 29 26 23 20 17 16 15 15 14 12 10 8 7 6 6 7 8 9 11 13 14 14
4 5 6 3 3 3 4 5 7 6 7 6 12 26 21 20 18 22 23 26 29 27 23 22 22 24 27 26 26 24 21 19 17 16 16 15 13 11 9 7 6 8 10 11 12 14 14 14 14
4 3 5 5 7 9 4 7 7 13 10 10 11 15 23 23 23 30 29 29 35 34 32 28 25 26 27 25 24 24 23 21 19 18 17 16 16 15 11 9 8 11 13 14 14 14 14 16 17
3 6 6 5 5 5 1 6 5 10 7 8 22 23 24 25 22 19 19 20 22 21 30 32 27 26 24 22 22 23 23 21 19 18 17 16 15 15 14 12 9 10 13 14 15 14 15 18 20
5 7 8 6 4 6 8 8 20 18 4 7 21 25 18 17 20 18 18 18 21 17 21 25 28 26 23 20 21 22 21 20 19 17 17 15 15 14 14 15 14 13 12 13 12 10 15 18 19
4 2 4 3 10 7 8 18 6 7 6 12 25 22 9 4 10 18 23 22 19 18 21 21 13 21 22 21 20 22 21 20 19 17 16 17 15 14 14 15 14 10 8 9 10 12 15 14 13
3 3 6 3 10 7 14 7 8 8 6 11 20 17 13 10 10 17 26 27 25 25 19 16 12 9 15 20 21 20 20 19 18 19 17 17 18 18 16 14 12 12 12 13 15 13 14 15 15
5 3 3 8 6 17 7 9 9 4 10 13 17 15 15 15 10 18 26 32 30 28 24 21 15 16 13 8 20 23 19 17 18 17 15 15 18 21 19 17 16 14 14 11 11 13 13 13 14
10 10 7 7 6 5 14 1 12 8 3 8 12 14 15 14 8 18 25 32 30 26 25 23 18 13 9 11 30 23 20 18 9 11 6 3 5 6 13 15 11 12 10 9 8 9 13 15 12
8 8 12 13 14 6 4 14 11 6 5 11 11 13 13 13 11 11 18 28 35 35 33 33 28 27 24 12 16 24 22 19 12 12 8 5 4 6 8 7 7 5 5 6 9 11 11 10 9
8 10 9 8 12 6 4 1 5 6 4 6 8 19 15 21 17 11 15 22 29 31 30 33 20 16 20 17 21 26 28 17 11 8 3 5 4 3 2 2 5 9 9 9 11 9 9 8 10
10 7 13 11 6 4 8 4 7 6 7 7 8 11 17 16 13 12 9 15 22 30 26 27 16 17 18 20 25 31 14 4 7 13 15 13 12 11 10 9 11 14 14 15 14 12 11 10 13
6 4 8 8 9 6 4 3 11 8 6 7 8 9 15 19 18 17 15 22 26 18 19 17 21 14 13 17 26 11 13 17 16 17 17 19 20 20 19 20 18 17 17 16 16 16 16 15 13
3 4 8 6 2 3 8 8 4 7 12 5 6 9 12 15 15 17 18 16 17 19 18 16 23 13 14 18 10 15 22 21 19 21 22 23 23 22 20 18 17 17 17 17 15 13 13 13 12
7 4 5 5 5 5 7 5 7 17 12 9 10 15 13 16 14 13 13 13 18 19 16 14 16 14 18 21 22 22 23 22 24 23 23 24 24 22 19 16 15 16 15 14 13 13 13 13 14
4 8 3 4 6 4 5 8 5 11 10 12 13 16 15 16 15 15 15 16 20 22 25 29 28 29 29 28 29 29 27 28 25 25 22 23 20 18 15 16 16 17 15 15 14 14 14 12 14
7 5 5 4 5 3 5 4 3 11 10 8 11 14 14 11 9 14 16 22 25 24 23 33 33 30 30 32 32 31 29 27 25 21 19 17 14 15 16 17 17 17 16 15 15 16 16 15 15
5 6 7 4 6 6 3 3 7 10 13 10 10 10 11 14 17 17 16 23 27 28 33 34 35 35 32 32 30 29 26 23 21 18 18 17 16 15 17 18 17 17 17 18 17 18 16 16 15
3 2 9 3 3 5 4 4 6 12 10 13 11 14 17 18 20 18 16 22 27 30 34 34 34 35 32 30 28 26 24 22 21 20 18 17 16 15 16 17 17 18 19 19 19 16 16 14 14
3 4 6 1 2 0 4 3 4 11 11 17 16 17 18 20 19 18 21 25 27 29 29 32 34 34 31 29 27 26 24 22 21 19 16 14 16 15 16 16 18 19 20 19 20 17 13 13 15

GFSSGP_925_spd_162.txt.gz
Wind_Speed
4 3 2 3 2 4 3 6 2 3 1 2 0 2 2 1 3 3 1 22 33 38 32 27 26 24 24 25 26 27 28 27 25 25 24 22 20 18 18 18 16 15 14 14 13 12 11 11 10
2 3 2 2 5 3 5 5 7 5 1 3 2 2 1 3 1 6 9 23 34 40 35 29 26 25 24 24 25 26 27 27 26 25 23 21 18 18 17 16 16 16 14 13 12 10 9 9 9
1 2 4 5 5 8 6 5 8 3 1 3 2 1 2 3 2 13 7 33 37 37 34 30 27 26 24 24 24 25 26 26 25 23 21 20 18 16 16 16 15 14 14 11 9 8 7 6 5
2 4 4 4 8 6 6 5 5 4 2 1 2 3 4 3 0 11 27 36 42 35 33 31 27 26 25 24 24 24 24 24 23 21 19 18 17 16 15 15 14 13 11 9 7 6 4 3 1
3 3 2 3 5 4 4 4 2 1 3 3 4 3 4 5 11 25 30 32 41 35 32 30 27 26 24 24 24 23 22 22 21 19 17 14 13 13 12 12 12 11 9 7 5 3 3 2 3
3 3 2 7 3 5 3 7 3 2 3 2 3 2 5 2 11 23 25 26 35 38 32 28 28 26 24 23 23 22 21 20 19 17 14 12 10 9 9 8 7 7 6 4 3 3 4 5 6
6 4 5 3 4 1 3 6 5 3 5 7 1 3 1 5 13 25 26 26 30 32 26 28 28 27 25 23 21 21 20 18 17 15 12 10 9 7 6 5 4 4 3 3 4 5 6 8 9
5 4 4 3 4 4 5 7 7 14 14 3 9 7 5 7 20 23 25 30 27 29 24 26 28 27 26 23 21 19 19 18 15 13 10 9 8 6 6 5 4 3 3 4 5 7 8 9 10
4 1 3 3 4 4 3 6 5 5 6 3 5 1 8 30 24 26 23 21 25 20 22 23 25 26 25 24 22 19 18 17 16 13 11 10 8 7 6 5 3 3 4 4 6 7 9 10 11
4 4 8 7 6 3 2 2 4 1 2 5 3 5 24 26 25 25 22 21 21 20 18 19 22 24 24 22 21 20 18 17 16 15 13 12 11 8 6 5 4 4 4 6 7 9 10 12 13
3 5 6 3 2 2 2 6 4 5 3 5 7 7 15 17 17 17 20 21 22 24 19 19 21 20 21 22 21 20 18 16 15 15 15 13 12 10 9 7 6 5 6 6 8 10 12 13 14
1 3 2 3 2 2 2 6 7 5 7 6 7 10 14 16 15 19 21 22 26 24 23 21 21 18 20 21 21 20 18 16 15 13 14 14 13 12 10 8 6 6 7 9 11 12 13 15 15
4 2 1 2 6 5 5 7 6 10 15 12 8 9 15 14 13 15 21 22 25 24 23 23 22 22 23 21 21 19 18 16 14 13 13 14 14 13 12 10 9 9 10 11 13 15 16 17 17
1 1 3 2 5 5 3 5 2 6 9 10 10 15 14 13 12 16 20 22 23 22 23 25 29 30 28 26 23 20 18 16 14 14 14 14 15 15 15 13 12 10 11 13 14 15 17 18 20
3 1 2 6 5 5 3 10 23 13 12 10 9 10 13 13 12 10 17 20 28 29 29 27 28 26 25 23 21 18 17 16 15 15 14 15 15 15 15 15 14 13 14 14 13 14 17 20 20
3 2 3 4 11 6 7 23 7 10 10 16 10 8 11 9 12 15 22 25 27 26 27 26 23 24 24 21 19 18 17 15 14 13 13 13 15 15 16 14 14 12 11 9 12 16 19 20 18
6 1 3 4 11 7 16 2 7 8 8 11 11 9 11 11 10 19 25 28 27 28 26 24 21 22 22 19 15 13 13 13 11 10 13 15 16 18 18 16 13 11 11 11 11 13 15 18 19
3 3 4 5 7 13 11 12 11 2 8 11 12 9 13 15 13 22 29 30 29 30 32 30 27 26 25 20 17 16 15 12 12 12 17 19 21 23 23 20 14 11 10 10 10 11 12 16 19
1 2 3 7 8 3 15 7 12 18 4 8 8 11 13 13 12 18 26 32 31 32 33 32 30 25 25 22 14 12 11 11 10 10 12 14 13 12 16 14 9 6 4 6 8 9 12 14 16
2 3 5 10 11 6 8 10 15 7 5 8 12 13 15 14 15 12 20 26 33 35 35 32 27 26 26 23 5 2 10 7 8 8 12 10 6 7 5 5 7 5 2 6 8 11 11 9 14
4 5 4 5 10 7 4 5 5 8 6 5 7 14 15 20 18 13 16 22 26 31 29 30 22 17 16 17 8 6 9 5 6 12 17 20 10 5 2 1 4 6 7 9 9 10 9 6 7
2 4 6 8 5 3 4 4 6 8 9 10 9 13 13 15 14 16 14 17 19 17 19 19 16 12 14 13 11 2 13 11 14 17 18 13 8 12 16 16 14 14 14 13 12 10 8 4 8
4 6 7 7 6 5 4 1 5 11 6 8 13 15 16 17 15 14 15 14 13 18 16 15 12 14 12 7 6 2 8 18 12 6 17 13 18 19 18 16 15 14 13 12 10 10 10 11 10
4 4 5 2 2 4 8 5 3 9 14 8 16 17 17 15 15 14 15 20 17 15 16 15 19 11 10 4 4 12 19 19 29 23 23 21 21 20 19 16 14 13 12 12 12 11 12 13 12
5 3 2 2 4 5 9 2 7 11 8 11 18 19 19 18 13 11 13 14 20 19 15 19 17 16 12 12 18 23 25 28 30 26 23 21 20 18 16 14 13 14 13 12 12 12 13 14 14
5 7 4 7 6 5 8 7 7 12 9 13 20 20 18 15 11 12 11 16 18 17 16 20 20 23 25 27 28 29 30 30 28 24 21 19 17 15 15 14 13 13 13 14 14 14 15 13 15
5 6 4 3 4 2 6 7 4 4 8 9 16 16 18 13 12 13 13 19 19 17 18 27 29 29 31 34 34 32 31 29 27 23 21 22 21 19 16 15 16 17 16 17 15 17 15 14 14
8 8 3 3 4 5 5 4 5 8 16 10 14 16 11 11 15 15 14 22 21 24 29 31 35 34 33 34 32 30 26 24 23 21 22 22 20 17 17 16 18 18 17 15 14 15 14 14 16
4 4 3 2 3 5 5 5 6 14 21 20 16 14 17 16 17 16 14 22 26 26 29 33 34 35 31 30 29 28 26 24 22 22 21 20 19 17 17 17 19 17 17 15 15 14 14 15 13
4 5 8 3 2 3 4 5 3 7 10 20 17 17 19 19 17 17 18 27 26 27 29 27 33 34 31 29 28 26 24 21 21 20 19 18 19 16 15 18 17 18 17 16 16 14 12 13 15

GFSSGP_925_spd_168.txt.gz
Wind_Speed
4 5 7 6 7 8 17 17 15 6 7 3 1 7 2 5 4 4 7 11 22 26 27 29 29 26 27 30 30 28 27 26 24 23 21 18 17 16 15 15 13 11 10 9 9 8 8 8 8
5 6 9 6 9 15 16 17 14 14 3 2 2 5 7 0 3 9 15 14 25 26 27 26 30 28 28 30 29 28 26 24 22 20 19 17 16 15 14 13 12 11 10 9 8 7 6 5 5
5 9 7 6 15 20 17 16 16 10 6 5 2 4 2 3 4 9 8 24 28 25 26 25 31 29 28 28 29 28 26 23 20 18 17 16 14 14 13 12 11 10 9 8 7 6 4 3 2
9 7 6 13 20 24 25 12 13 13 10 5 6 5 6 4 6 7 21 27 29 27 24 26 31 29 28 28 28 26 25 22 20 18 15 14 13 12 12 11 10 9 7 6 5 4 3 2 2
12 6 11 18 25 22 17 17 10 14 14 9 8 5 2 7 7 15 24 28 29 27 24 27 30 29 28 28 26 25 23 22 20 17 14 12 11 11 11 10 9 8 6 4 3 2 2 4 5
9 9 12 21 24 23 15 19 15 14 15 9 8 7 3 7 11 18 24 28 28 27 25 25 27 27 26 26 25 24 23 21 19 15 13 11 10 9 9 8 7 6 4 3 2 4 5 7 9
18 13 21 22 22 21 20 17 19 18 16 15 3 6 6 8 11 20 25 27 27 26 27 25 22 23 24 24 24 23 22 20 17 15 12 10 8 8 7 6 6 4 3 4 5 6 8 9 11
13 13 24 24 19 22 18 21 17 19 18 6 3 7 7 11 16 20 25 27 27 26 25 25 23 20 20 19 22 21 20 18 16 13 11 10 8 7 5 3 2 3 4 4 6 7 9 10 11
14 13 19 27 22 19 12 19 19 15 17 12 11 7 8 18 18 22 25 26 27 25 25 25 25 21 19 18 19 19 18 16 15 11 10 9 6 5 3 5 5 3 4 5 6 7 9 11 12
14 16 24 17 20 16 15 17 20 18 19 19 20 8 11 19 21 22 25 27 29 28 25 25 25 23 19 17 18 16 15 13 11 9 9 7 6 5 4 2 3 4 7 7 9 9 11 10 10
15 21 18 16 11 14 15 14 13 15 19 21 20 16 14 16 20 21 24 27 30 29 26 25 24 24 20 18 18 16 15 13 12 10 8 6 4 3 2 2 3 5 8 7 8 10 10 11 12
17 15 20 10 17 13 17 14 14 17 13 7 8 9 13 16 17 20 24 27 27 28 27 26 24 24 22 18 17 16 14 13 11 10 8 6 4 3 2 3 4 5 6 8 9 11 12 14 14
16 21 15 18 9 14 12 13 17 17 17 6 1 1 13 14 14 19 22 25 26 28 28 26 25 23 22 19 16 15 13 12 10 8 7 4 3 3 3 3 4 6 7 9 12 13 13 15 16
8 19 15 19 17 16 16 19 18 16 17 12 8 8 10 15 14 16 21 25 26 25 25 25 23 20 19 17 16 14 12 10 8 6 6 6 5 3 3 3 4 6 7 10 12 14 15 16 18
9 12 16 20 16 17 14 21 28 21 12 11 8 5 5 13 16 18 23 25 26 25 24 24 21 18 17 15 14 12 11 8 6 5 5 5 4 3 3 1 2 4 7 10 12 16 17 19 20
15 15 16 18 22 18 17 23 22 22 21 20 16 9 6 5 12 18 22 25 25 24 23 21 19 18 17 15 13 10 8 7 5 4 4 4 3 2 0 1 2 4 5 10 16 19 19 18 16
11 13 20 18 18 21 21 12 24 17 20 17 17 14 10 8 11 17 21 24 25 23 22 21 19 19 18 16 14 11 9 8 6 5 5 4 4 3 3 2 4 8 6 8 15 17 19 21 19
9 13 7 16 16 20 23 23 16 9 17 19 15 15 13 11 11 16 20 22 23 23 21 19 18 18 18 16 13 12 11 10 8 8 8 8 6 6 7 8 8 5 9 11 14 22 20 21 20
6 7 8 8 2 11 19 22 21 22 10 14 15 13 13 15 12 15 19 19 21 22 22 21 19 19 19 18 16 15 15 13 11 11 12 12 10 9 7 8 6 7 9 8 3 16 20 19 15
10 11 10 9 13 10 13 19 19 19 21 18 14 14 14 15 16 15 20 21 21 22 21 21 20 20 17 16 15 15 16 14 13 10 8 5 3 4 4 1 3 7 4 2 6 9 15 15 9
11 11 7 9 4 9 12 16 18 22 20 20 17 13 14 18 18 17 19 21 21 21 21 21 21 21 18 17 17 18 16 14 11 9 6 3 3 2 4 6 3 4 7 8 6 6 8 11 9
12 7 10 10 9 12 15 7 24 22 23 21 20 16 16 20 18 18 18 22 21 22 20 20 21 20 19 18 18 19 17 13 8 9 7 8 10 10 9 8 10 11 9 15 8 6 8 11 10
9 4 8 10 10 12 11 7 14 24 22 23 22 19 17 19 19 19 20 22 20 23 23 22 21 20 19 17 16 16 12 9 10 9 11 12 13 12 13 10 13 11 12 12 9 9 9 8 8
4 8 9 9 9 12 16 14 12 18 27 25 24 22 20 19 19 19 25 27 25 25 22 25 21 19 17 16 13 11 12 11 11 12 13 11 11 12 12 15 12 13 13 9 8 7 9 7 7
12 10 7 7 8 12 18 12 19 18 24 26 26 24 22 21 20 22 23 21 25 27 25 25 20 18 16 14 12 11 12 14 16 13 12 11 10 10 15 13 11 11 9 8 7 6 7 9 7
16 13 6 8 12 13 8 13 12 19 13 23 23 23 22 23 22 23 23 26 27 27 25 23 20 17 16 15 15 15 16 14 14 13 12 13 13 12 9 10 9 9 9 8 7 5 6 6 6
13 16 11 9 16 9 14 17 13 18 18 18 25 24 23 21 21 22 22 27 28 27 23 22 21 19 18 19 18 17 16 15 16 15 14 13 11 10 10 8 8 9 8 7 5 4 4 5 5
13 12 10 8 8 14 13 20 12 20 16 21 27 24 25 21 23 22 22 27 27 27 26 23 22 22 21 19 18 18 18 17 17 14 13 12 11 10 9 8 8 7 6 5 4 4 6 5 5
10 12 13 12 13 11 16 15 17 14 19 24 25 25 25 25 24 23 20 25 28 29 26 25 24 23 23 21 21 20 18 16 15 15 13 12 11 9 8 8 7 6 5 5 5 4 3 5 6
18 19 20 10 16 15 15 11 18 17 16 25 26 26 29 28 26 24 22 26 28 29 28 27 25 24 22 21 20 19 17 16 16 15 13 11 10 9 8 7 6 5 4 4 4 4 5 6 6

GFSSGP_925_spd_171.txt.gz
Wind_Speed
7 9 12 12 8 9 20 22 22 7 7 4 7 6 4 6 12 5 7 8 21 25 25 24 22 22 21 24 26 23 22 22 20 18 18 16 16 14 12 11 9 7 6 6 6 6 5 5 5
10 10 14 8 11 17 17 22 23 11 6 9 2 4 5 4 6 14 14 13 22 24 25 21 22 21 22 24 26 24 24 23 21 19 16 14 13 12 11 9 7 7 6 6 6 5 4 3 2
8 13 10 7 17 21 20 22 21 13 10 7 4 6 3 6 5 8 11 19 23 24 25 22 24 21 22 25 26 25 24 21 20 18 15 13 12 11 10 9 8 7 7 6 5 4 3 2 2
10 9 8 15 23 27 28 25 18 14 9 10 9 3 7 8 9 7 15 21 23 24 25 23 25 23 24 24 24 24 23 20 18 16 14 13 12 12 11 10 9 8 6 5 3 2 2 3 5
18 9 12 19 26 26 24 29 21 11 15 16 12 9 8 9 12 16 21 22 23 25 24 24 25 23 23 23 23 23 22 19 17 15 14 13 12 12 12 10 9 7 5 2 1 2 5 6 8
10 14 13 22 26 27 26 21 29 12 17 16 15 11 7 13 15 17 22 23 23 24 23 24 25 22 21 21 22 22 20 18 17 15 13 12 12 11 10 9 7 5 3 2 3 6 8 10 12
19 16 22 25 22 27 26 25 17 14 18 17 9 17 8 14 16 18 21 23 22 23 24 23 21 20 20 20 21 21 19 18 17 14 13 11 11 10 9 7 5 4 3 4 5 8 10 12 14
15 17 27 25 23 26 22 24 19 22 22 19 8 8 14 14 17 21 23 24 24 23 23 24 22 20 19 17 19 19 19 18 16 14 12 11 9 8 6 4 3 3 4 5 6 8 11 13 15
17 17 21 27 26 23 21 21 15 20 21 22 16 12 17 17 19 21 24 24 24 23 23 24 25 22 22 21 18 19 18 17 16 13 11 9 8 6 4 6 5 4 4 5 6 8 11 13 15
18 16 27 25 21 24 26 18 16 21 21 23 12 13 19 15 18 22 24 25 27 26 25 26 25 24 23 21 21 17 16 14 13 11 11 8 7 6 4 4 2 2 4 5 4 7 13 12 12
21 22 21 25 25 22 19 23 14 21 21 21 20 15 19 14 15 18 22 28 30 28 26 25 25 24 23 22 21 17 15 14 12 11 10 5 7 6 5 6 6 2 4 5 5 9 10 13 15
24 24 21 27 22 18 19 16 18 22 25 16 23 17 21 18 16 16 20 24 26 28 28 27 24 22 22 21 21 18 16 14 12 12 10 8 7 6 4 4 1 4 0 5 6 9 10 11 14
20 23 22 21 21 18 18 19 21 20 13 5 8 4 16 15 17 19 21 22 26 27 26 27 25 23 19 22 18 16 14 13 12 11 11 9 8 6 6 3 4 3 2 3 5 7 9 11 12
17 21 16 21 22 22 15 20 22 18 19 14 9 7 10 17 15 19 22 23 24 25 24 25 25 21 20 17 16 15 13 11 11 10 10 8 7 6 6 6 5 3 3 4 5 5 5 8 13
15 20 16 26 21 26 20 21 26 23 20 17 12 12 14 15 21 17 20 24 25 25 27 25 25 22 20 18 17 15 13 13 11 10 8 8 7 6 5 5 5 3 2 4 7 9 7 5 2
14 18 18 23 25 22 22 26 25 24 23 24 19 13 11 12 17 21 20 19 23 24 23 23 21 20 20 19 17 14 13 11 10 8 9 9 8 8 7 6 5 4 2 4 6 7 8 10 10
18 16 23 25 28 27 26 22 23 26 23 20 19 17 14 10 11 19 19 19 25 26 25 25 23 23 21 19 16 14 12 10 10 9 9 9 9 9 8 7 6 4 3 3 6 5 7 10 12
10 21 19 23 23 27 30 24 23 24 29 24 20 21 17 16 16 19 23 23 26 28 26 26 21 19 19 18 15 15 14 11 10 9 8 9 9 9 7 6 4 2 4 8 8 9 8 11 14
12 15 13 12 17 22 22 25 25 16 20 22 23 17 18 16 14 23 22 27 27 28 28 25 23 22 21 21 19 17 17 15 11 9 8 6 4 3 2 1 0 4 7 9 9 10 8 11 15
13 13 16 14 10 7 15 23 26 25 20 19 21 22 22 18 16 14 25 28 28 27 26 24 24 25 22 21 20 19 17 14 12 10 8 7 5 5 5 3 4 7 7 6 8 10 10 11 14
14 17 16 17 11 16 15 18 22 26 22 22 18 22 19 19 20 19 19 26 30 30 30 28 26 25 22 21 16 15 16 14 13 11 10 6 4 4 4 4 3 5 4 7 10 11 13 10 13
15 15 13 13 11 13 20 12 23 25 25 24 22 19 21 20 21 22 13 18 27 30 29 29 27 25 22 21 18 17 17 16 10 14 12 10 10 10 10 11 10 10 7 10 10 10 10 13 13
14 7 11 15 15 16 17 12 17 28 25 26 25 24 19 22 24 26 22 14 28 32 30 28 29 26 24 21 19 19 13 13 15 13 13 12 11 12 11 12 11 10 9 12 11 10 13 15 10
12 11 14 14 14 13 19 13 18 25 29 27 27 25 23 23 24 25 36 44 34 31 31 27 29 26 24 18 15 12 10 18 14 12 12 11 10 11 10 10 10 9 9 10 9 12 16 13 11
11 15 10 10 11 13 19 13 21 22 27 30 29 28 27 24 24 26 28 24 32 31 34 30 25 24 22 19 13 12 14 14 14 15 12 12 11 9 9 9 9 9 11 11 13 13 13 13 12
11 15 9 6 10 13 17 16 16 18 11 27 27 28 26 25 24 24 24 21 31 31 33 31 24 21 21 21 17 20 17 16 15 14 13 11 11 9 8 10 10 12 13 12 10 10 10 10 11
16 15 14 8 16 11 12 11 17 15 14 24 27 29 26 25 23 24 29 24 28 32 31 30 30 27 25 23 22 19 17 15 17 16 14 13 12 10 10 11 12 13 11 9 8 9 9 10 10
16 10 10 8 9 13 14 21 11 18 15 14 25 29 27 23 22 24 26 26 30 34 33 30 27 27 27 24 23 20 18 18 17 15 15 15 12 11 11 11 11 10 9 8 6 8 9 9 9
12 15 15 14 12 10 12 12 15 16 19 19 23 28 28 21 27 23 18 37 38 33 32 33 31 31 27 24 23 22 20 18 16 16 15 13 12 11 10 10 9 9 8 8 7 8 8 9 9
10 16 18 11 17 13 16 16 5 18 20 18 24 27 28 27 25 23 15 23 34 34 33 32 31 30 27 26 24 22 19 18 17 15 13 12 11 11 10 9 8 7 7 7 7 8 8 8 9

GFSSGP_925_spd_174.txt.gz
Wind_Speed
10 10 11 14 7 8 18 22 22 26 18 23 26 12 7 14 16 4 15 8 30 25 24 22 21 21 21 22 22 19 19 19 17 18 18 17 15 14 12 11 9 8 7 7 6 5 5 5 4
10 14 16 6 9 15 16 22 25 23 20 12 9 3 1 19 16 12 6 10 30 24 24 23 21 21 21 23 22 20 20 19 17 16 16 16 14 13 11 9 8 7 7 6 5 5 4 3 2
12 15 9 6 15 18 18 24 21 24 11 9 4 4 4 7 19 23 18 33 30 25 22 24 22 21 21 24 22 20 21 19 17 16 14 14 13 12 11 9 8 7 7 5 5 3 2 1 2
9 7 7 14 21 25 27 24 27 18 15 13 6 4 10 15 10 18 23 32 28 25 22 25 21 21 22 26 22 21 20 18 16 14 13 13 12 12 10 9 9 8 6 5 3 1 1 2 5
18 8 11 17 25 26 22 27 29 27 21 15 9 6 12 19 18 22 27 30 30 28 22 25 21 21 23 26 23 21 19 17 16 14 13 13 13 12 11 10 9 7 5 3 1 2 4 6 7
10 12 15 18 23 25 25 25 25 26 24 10 16 11 11 25 21 22 25 24 30 30 24 24 22 21 23 23 23 21 18 16 15 14 13 13 13 12 11 9 8 6 3 2 3 5 7 9 10
16 14 20 23 21 25 23 24 25 21 22 19 14 17 16 18 24 24 25 25 29 28 27 23 23 21 21 22 22 20 17 16 16 14 13 12 12 12 10 8 6 4 4 4 5 7 9 10 11
14 15 25 23 21 27 20 24 25 25 17 16 14 8 17 20 29 25 24 26 31 30 26 24 23 23 21 21 20 19 17 16 15 14 13 12 11 10 8 7 6 4 4 5 5 7 9 10 11
19 16 18 26 25 20 22 24 22 22 17 15 18 21 20 29 28 27 27 24 28 27 26 25 23 23 21 20 21 19 18 17 15 13 12 12 10 9 7 5 7 3 3 3 3 5 8 9 11
17 16 25 23 23 23 23 25 26 18 15 19 22 21 24 24 23 22 23 25 26 27 25 26 26 25 25 20 22 20 19 17 14 12 13 13 13 6 10 6 4 2 2 3 3 6 9 8 9
19 21 22 21 24 26 27 24 26 18 18 21 23 21 19 18 19 18 23 28 27 27 27 28 29 28 25 25 25 20 19 15 16 14 13 8 12 10 11 9 8 5 4 3 5 10 10 4 9
19 22 24 23 25 25 25 23 27 25 15 20 24 23 21 20 19 20 22 28 30 31 30 28 31 28 27 24 25 23 21 19 18 18 12 11 11 12 10 10 11 5 11 3 8 10 8 8 12
19 19 20 22 25 23 25 22 26 22 14 20 20 19 25 17 17 22 25 28 28 33 31 31 31 26 30 26 25 26 24 22 20 18 14 10 13 10 7 4 6 5 3 5 5 9 10 10 17
19 17 17 17 23 23 24 22 23 19 18 22 7 6 21 23 18 16 26 24 31 34 37 34 32 24 27 24 22 24 23 19 20 14 13 12 9 11 7 6 5 5 4 6 5 10 12 12 13
17 18 16 21 19 21 19 24 25 21 22 20 11 8 12 21 22 16 20 38 30 36 33 36 30 24 28 17 22 19 18 17 15 16 17 10 9 6 6 7 5 3 1 5 6 8 9 9 10
20 15 16 20 19 20 24 26 24 21 21 24 20 14 15 13 12 24 24 29 37 37 37 32 29 23 26 19 20 20 18 16 15 17 10 9 8 5 10 5 5 1 2 5 6 6 7 8 9
16 16 20 21 19 20 27 28 27 23 22 22 19 13 16 11 15 18 31 35 39 38 37 29 32 26 23 22 18 17 18 12 14 11 10 11 9 8 8 3 1 4 3 5 8 9 9 11 12
13 14 18 20 17 21 27 28 25 25 26 24 23 18 15 14 17 15 40 46 37 38 36 29 28 26 25 26 22 16 19 9 12 9 10 10 7 7 5 2 2 3 6 9 10 9 8 9 11
21 14 21 20 23 22 26 26 27 24 24 24 24 21 17 17 12 24 15 37 36 37 34 30 28 30 27 25 21 21 20 11 12 11 8 7 3 2 3 5 4 4 7 7 8 7 7 8 11
15 11 24 20 11 14 19 27 29 26 25 24 24 17 18 17 16 17 23 27 28 31 31 29 26 26 25 23 20 21 20 16 14 12 12 10 10 9 5 5 6 5 5 6 8 11 9 11 16
16 18 17 17 14 19 25 21 24 28 25 20 26 21 21 19 19 14 20 28 26 26 29 27 25 28 24 24 21 20 20 19 19 15 12 10 6 5 4 4 8 11 12 11 9 11 12 9 12
14 17 20 17 4 7 16 12 20 24 22 21 18 18 20 20 22 18 13 17 26 26 27 24 26 28 26 26 21 23 21 17 15 19 14 12 11 13 13 13 14 11 10 11 10 10 12 12 12
14 12 17 17 13 15 18 15 18 21 26 24 22 19 21 24 22 26 23 28 31 29 28 27 27 25 23 24 22 20 18 18 23 21 18 16 15 14 14 14 15 13 13 13 12 14 15 13 15
10 10 20 12 13 14 21 18 19 20 26 24 23 22 23 21 22 24 29 33 31 31 29 27 27 25 26 20 24 19 19 24 23 18 18 16 15 14 14 13 13 13 12 11 12 13 16 16 16
12 7 9 10 11 14 23 20 18 26 31 27 25 24 19 20 21 25 24 17 21 25 29 29 28 24 26 22 22 16 26 22 23 21 18 18 16 13 12 13 12 12 12 13 13 15 16 18 18
14 14 10 8 5 11 22 20 18 13 29 28 27 23 21 21 25 28 24 22 26 33 25 27 28 26 22 24 22 27 24 20 21 19 18 19 17 13 13 13 12 13 12 13 13 15 16 14 17
13 17 4 4 18 16 13 21 19 13 13 26 26 25 25 25 26 27 25 29 31 31 36 31 29 26 25 31 28 26 26 22 24 24 23 19 17 16 14 13 14 13 13 12 13 15 15 13 13
16 2 8 8 5 8 10 17 12 14 14 18 26 29 26 25 28 28 30 30 35 38 41 35 33 32 30 29 28 26 30 27 23 23 22 20 19 16 15 15 15 14 12 10 13 14 13 13 13
10 15 13 14 12 13 9 8 10 15 10 9 24 25 25 25 24 27 27 25 58 48 40 41 33 32 30 27 29 29 28 26 24 23 21 19 18 16 16 15 14 13 13 14 14 13 13 13 13
15 15 14 9 16 13 11 13 15 7 15 11 14 23 25 22 24 22 21 23 32 36 36 34 35 36 29 29 30 29 28 27 26 24 22 19 18 15 15 14 13 13 12 12 13 14 12 13 12